Zurück zum Katalog

STARLINK-31039

AktivKommunikationVLEO
NORAD 58784·PAYLOAD·🇺🇸 United States

Gestartet Jan 14, 2024 von Vandenberg Space Force Base

Loading…

Nächste Überflüge (nächste 24 Stunden)

TLE

AktuellSource: CelesTrak SupGP

Epoche: Sep 15, 2026, 02:26 UTC

1 58784C 24011V   26258.10187500 -.00064701  00000+0 -19117-2 0  2583
2 58784  53.1578 212.9819 0001346  88.9252 234.0422 15.34421972    19

Verfolge STARLINK-31039 in Echtzeit mit AllMySat

Download on the App Store